Find Starlink 30401

NORAD ID: 57818 Int'l Des: 2023-138 Owner: SPXS Country: US Constellation: starlink operational
LEOCIRCULAR

現在のビュー

3D地球を読み込み中...

About Starlink 30401

Starlink 30401 (NORAD 57818) is a starlink constellation satellite (v2 mini) launched Sep 9, 2023 by SPXS of US. It operates in LEO, CIRCULAR orbit with a mass of 730.00 kg.

Starlink 30401について

説明を読み込み中...

次回通過

Passes for default location (London). Set your location on the main map for personalized predictions.

高度履歴

Loading altitude history...

軌道要素

1 57818U 23138L 26171.27557638 .00000823 00000-0 39428-4 0 9999
2 57818 43.0056 15.1538 0001407 265.1799 94.8892 15.27580976154328
Epoch: Jun 20, 2026 • Age: 15 hours

現在のステータス

高度 486.7 km
速度 7.63 km/s
衛星直下点 41.36°N, 105.12°W
打ち上げ日 Sep 9, 2023
運用期間 2.7 years
タイプ internet

技術仕様

分類 Payload
質量 730.00 kg
乾燥質量 700.00 kg
総質量 730.00 kg
長さ 0.30 m
直径 4.10 m
スパン 29.00 m
形状 Box + pan
製造者 SPXS
バスタイプ Starlink V2M
フェーズステータス In Orbit
所有者/国 SPXS/US

Most Searched